This is the latest recevied weather packets stored in our database for station/object KF0EZB. If no packets are shown the sender has not sent any weather packets the latest 10 day(s).
| Time | Temp. | Humidity | Pressure | Rain* | Wind** | Luminosity | Snow |
|---|---|---|---|---|---|---|---|
| 1777688501 | 11.11° C | 73% | 1018.4 hPa | 0 mm | - | 0 W/m² | - |
| 1777688199 | 11.11° C | 73% | 1018.2 hPa | 0 mm | - | 0 W/m² | - |
| 1777687896 | 11.67° C | 72% | 1017.8 hPa | 0 mm | - | 0 W/m² | - |
| 1777687593 | 11.67° C | 71% | 1018.1 hPa | 0 mm | - | 0 W/m² | - |
| 1777687289 | 11.67° C | 72% | 1017.8 hPa | 0 mm | - | 0 W/m² | - |
| 1777686988 | 12.22° C | 70% | 1017.7 hPa | 0 mm | - | 0 W/m² | - |
| 1777686684 | 12.78° C | 69% | 1017.8 hPa | 0 mm | - | 0 W/m² | - |
| 1777686381 | 12.78° C | 68% | 1017.7 hPa | 0 mm | - | 0 W/m² | - |
| 1777686078 | 12.78° C | 67% | 1017.6 hPa | 0 mm | - | 0 W/m² | - |
| 1777685774 | 12.78° C | 67% | 1017.7 hPa | 0 mm | - | 0 W/m² | - |
| 1777685470 | 13.33° C | 66% | 1017.7 hPa | 0 mm | - | 0 W/m² | - |
| 1777685168 | 13.89° C | 65% | 1017.7 hPa | 0 mm | - | 2 W/m² | - |
| 1777684866 | 13.89° C | 64% | 1017.9 hPa | 0 mm | - | 4 W/m² | - |
| 1777684562 | 13.89° C | 64% | 1017.7 hPa | 0 mm | - | 8 W/m² | - |
| 1777684258 | 13.89° C | 64% | 1017.7 hPa | 0 mm | - | 8 W/m² | - |
| 1777683955 | 13.89° C | 64% | 1017.5 hPa | 0 mm | - | 10 W/m² | - |
| 1777683651 | 13.89° C | 64% | 1017.5 hPa | 0 mm | - | 15 W/m² | - |
| 1777683350 | 13.89° C | 64% | 1017.4 hPa | 0 mm | - | 16 W/m² | - |
| 1777683047 | 13.89° C | 63% | 1017.4 hPa | 0 mm | - | 15 W/m² | - |
| 1777682742 | 13.89° C | 62% | 1017.2 hPa | 0 mm | - | 24 W/m² | - |
| 1777682439 | 14.44° C | 62% | 1017.2 hPa | 0 mm | - | 32 W/m² | - |
| 1777682138 | 14.44° C | 62% | 1017.1 hPa | 0 mm | - | 40 W/m² | - |
| 1777681834 | 14.44° C | 63% | 1017.3 hPa | 0 mm | - | 36 W/m² | - |
| 1777681531 | 14.44° C | 63% | 1017.5 hPa | 0 mm | - | 37 W/m² | - |
| 1777681228 | 14.44° C | 63% | 1017.3 hPa | 0 mm | - | 23 W/m² | - |
* Rain latest hour (hover to see other rain measurements)
** Current wind speed in m/s (hover to see current wind gust speed)